Precipitable_Water
0.67 0.69 0.69 0.69 0.71 0.70 0.66 0.61 0.50 0.36 0.35 0.42 0.41 0.47 0.49 0.51 0.53 0.53 0.49 0.51 0.55 0.56 0.62 0.69 0.75 0.81 0.80 0.82 0.78 0.81 0.82 0.87 1.02 1.08 1.07 1.06 1.04 1.02
0.68 0.68 0.70 0.69 0.65 0.61 0.57 0.53 0.46 0.40 0.34 0.42 0.42 0.47 0.49 0.49 0.51 0.51 0.53 0.57 0.58 0.59 0.62 0.64 0.72 0.83 0.83 0.81 0.78 0.78 0.81 0.88 0.97 1.08 1.02 1.05 1.03 1.02
0.69 0.68 0.64 0.62 0.59 0.58 0.53 0.48 0.44 0.43 0.37 0.40 0.45 0.47 0.47 0.47 0.49 0.53 0.58 0.59 0.61 0.62 0.65 0.66 0.70 0.80 0.85 0.78 0.76 0.73 0.76 0.83 1.05 1.03 1.05 1.00 1.00 0.97
0.66 0.62 0.61 0.61 0.56 0.54 0.48 0.44 0.44 0.47 0.42 0.36 0.42 0.43 0.45 0.49 0.51 0.52 0.55 0.61 0.62 0.64 0.64 0.63 0.66 0.78 0.87 0.80 0.78 0.77 0.73 0.79 0.81 0.97 0.98 1.00 0.98 0.97
0.59 0.60 0.58 0.55 0.52 0.48 0.46 0.45 0.46 0.46 0.44 0.41 0.39 0.45 0.46 0.51 0.52 0.55 0.58 0.61 0.64 0.63 0.64 0.64 0.63 0.72 0.83 0.82 0.84 0.81 0.75 0.87 0.93 0.89 0.97 0.99 0.97 0.97
0.56 0.60 0.60 0.54 0.47 0.46 0.46 0.46 0.46 0.43 0.43 0.41 0.40 0.41 0.45 0.51 0.54 0.53 0.55 0.61 0.60 0.63 0.62 0.65 0.66 0.69 0.79 0.82 0.83 0.82 0.81 0.82 0.86 0.88 0.98 0.95 0.95 0.93
0.62 0.60 0.59 0.52 0.49 0.49 0.48 0.47 0.46 0.43 0.42 0.39 0.39 0.42 0.44 0.46 0.49 0.56 0.55 0.58 0.59 0.61 0.60 0.64 0.69 0.72 0.76 0.80 0.81 0.83 0.83 0.81 0.81 0.90 0.92 0.92 0.92 0.89
0.58 0.60 0.52 0.50 0.50 0.51 0.50 0.49 0.48 0.44 0.41 0.41 0.41 0.41 0.44 0.50 0.54 0.55 0.54 0.52 0.48 0.61 0.59 0.59 0.64 0.66 0.75 0.78 0.82 0.81 0.85 0.88 0.94 0.90 0.89 0.88 0.87 0.84
0.57 0.54 0.51 0.50 0.50 0.49 0.49 0.48 0.48 0.50 0.50 0.47 0.43 0.45 0.48 0.54 0.55 0.55 0.54 0.52 0.51 0.56 0.56 0.52 0.60 0.62 0.73 0.78 0.79 0.82 0.82 0.83 0.83 0.85 0.84 0.83 0.81 0.79
0.54 0.53 0.49 0.48 0.49 0.48 0.47 0.46 0.46 0.48 0.50 0.51 0.50 0.51 0.55 0.60 0.59 0.59 0.56 0.55 0.55 0.56 0.58 0.47 0.57 0.59 0.68 0.72 0.77 0.76 0.76 0.79 0.77 0.81 0.80 0.77 0.76 0.73
0.54 0.51 0.49 0.48 0.48 0.48 0.44 0.42 0.43 0.47 0.53 0.55 0.55 0.55 0.57 0.60 0.60 0.58 0.53 0.50 0.48 0.50 0.56 0.50 0.52 0.55 0.59 0.60 0.66 0.70 0.74 0.77 0.77 0.76 0.74 0.72 0.70 0.68
0.50 0.49 0.49 0.48 0.47 0.45 0.42 0.41 0.40 0.45 0.49 0.53 0.55 0.55 0.57 0.59 0.61 0.60 0.56 0.50 0.50 0.48 0.54 0.49 0.50 0.52 0.48 0.54 0.58 0.64 0.71 0.73 0.73 0.71 0.69 0.68 0.66 0.62
0.47 0.46 0.48 0.47 0.44 0.41 0.40 0.39 0.39 0.46 0.48 0.51 0.52 0.55 0.56 0.57 0.58 0.60 0.60 0.57 0.52 0.50 0.57 0.54 0.52 0.53 0.50 0.49 0.56 0.61 0.64 0.63 0.63 0.63 0.64 0.63 0.62 0.60
0.47 0.47 0.46 0.43 0.40 0.38 0.37 0.38 0.40 0.42 0.44 0.45 0.47 0.50 0.52 0.55 0.57 0.60 0.61 0.61 0.60 0.55 0.55 0.56 0.52 0.52 0.51 0.49 0.48 0.54 0.57 0.58 0.59 0.57 0.58 0.57 0.57 0.55
0.49 0.46 0.42 0.39 0.37 0.36 0.36 0.37 0.38 0.38 0.38 0.37 0.39 0.44 0.49 0.54 0.56 0.57 0.58 0.59 0.59 0.57 0.55 0.55 0.53 0.51 0.50 0.47 0.45 0.47 0.48 0.50 0.54 0.53 0.53 0.52 0.51 0.50
0.47 0.42 0.38 0.36 0.36 0.35 0.35 0.36 0.36 0.37 0.36 0.35 0.36 0.41 0.45 0.47 0.50 0.54 0.53 0.53 0.50 0.50 0.54 0.54 0.54 0.54 0.49 0.48 0.49 0.47 0.48 0.44 0.48 0.49 0.49 0.48 0.48 0.47
0.44 0.38 0.34 0.32 0.31 0.32 0.33 0.34 0.34 0.35 0.34 0.36 0.36 0.37 0.38 0.40 0.41 0.47 0.49 0.50 0.47 0.46 0.45 0.48 0.51 0.53 0.51 0.50 0.45 0.46 0.45 0.45 0.47 0.46 0.45 0.43 0.44 0.43
0.39 0.33 0.30 0.30 0.30 0.30 0.31 0.31 0.32 0.33 0.33 0.34 0.35 0.36 0.36 0.36 0.37 0.40 0.43 0.45 0.44 0.45 0.45 0.46 0.46 0.45 0.45 0.46 0.49 0.44 0.44 0.43 0.44 0.44 0.43 0.40 0.39 0.40
0.34 0.31 0.29 0.29 0.30 0.31 0.31 0.31 0.30 0.33 0.34 0.33 0.34 0.34 0.35 0.36 0.36 0.36 0.38 0.40 0.41 0.42 0.43 0.45 0.44 0.42 0.37 0.35 0.41 0.46 0.40 0.41 0.40 0.40 0.40 0.39 0.37 0.38
0.33 0.31 0.30 0.31 0.31 0.31 0.31 0.31 0.32 0.33 0.33 0.33 0.34 0.35 0.36 0.35 0.35 0.35 0.37 0.37 0.38 0.40 0.40 0.42 0.41 0.40 0.38 0.36 0.36 0.40 0.44 0.39 0.38 0.37 0.36 0.38 0.39 0.41
0.32 0.31 0.32 0.32 0.32 0.32 0.32 0.32 0.32 0.33 0.33 0.33 0.34 0.35 0.36 0.35 0.34 0.35 0.36 0.37 0.38 0.38 0.37 0.37 0.40 0.44 0.43 0.42 0.36 0.35 0.39 0.42 0.41 0.37 0.37 0.34 0.33 0.33
0.32 0.32 0.32 0.33 0.33 0.33 0.32 0.32 0.31 0.31 0.32 0.33 0.34 0.35 0.35 0.35 0.35 0.35 0.36 0.36 0.36 0.37 0.37 0.39 0.41 0.41 0.39 0.35 0.33 0.34 0.35 0.38 0.41 0.40 0.40 0.37 0.33 0.29
0.31 0.32 0.32 0.31 0.32 0.32 0.32 0.32 0.31 0.31 0.32 0.32 0.33 0.34 0.34 0.33 0.35 0.36 0.37 0.37 0.37 0.36 0.37 0.36 0.37 0.38 0.36 0.34 0.33 0.33 0.33 0.33 0.34 0.34 0.35 0.39 0.40 0.38
Wind_Speed
36 37 39 40 40 40 41 41 41 42 43 40 40 43 45 46 48 50 51 51 51 50 47 44 40 39 37 34 32 29 27 30 40 38 32 35 36 36
38 39 39 39 39 39 40 40 40 41 43 44 46 46 46 48 49 49 48 48 46 44 41 39 38 37 37 35 32 30 28 31 39 44 34 35 34 35
38 39 39 38 38 38 39 39 39 40 43 45 45 46 47 48 48 47 47 46 43 39 37 37 38 37 37 35 34 32 29 23 31 37 38 35 35 34
40 38 36 37 37 37 37 37 39 40 42 45 45 46 47 48 48 47 44 42 39 37 36 36 37 37 35 36 35 34 33 33 36 40 40 39 36 35
36 35 35 35 35 36 36 37 38 40 42 44 45 46 46 46 45 43 40 37 34 32 31 31 32 35 33 34 35 34 35 32 36 36 40 41 37 35
35 34 34 34 34 34 35 36 38 40 41 42 43 45 44 44 41 38 33 31 30 28 27 27 28 30 32 32 32 32 33 36 38 37 38 37 38 34
34 33 32 32 32 32 33 34 36 38 40 41 42 42 43 40 36 32 30 27 25 23 22 22 22 25 28 27 28 29 31 37 38 38 38 35 35 35
32 30 31 30 30 31 32 33 36 38 38 39 40 41 42 38 33 28 26 23 19 18 19 20 22 22 24 26 24 22 22 36 38 34 36 36 36 34
30 29 28 28 28 29 31 33 35 36 37 38 39 39 38 34 28 23 20 17 17 17 17 18 17 14 18 21 25 27 29 34 36 34 34 36 35 31
28 26 26 26 27 28 30 31 32 33 33 34 35 34 32 26 20 17 16 14 13 14 12 11 9 5 8 12 19 25 29 33 33 36 34 33 30 29
24 23 23 24 25 27 28 28 29 30 30 31 30 28 26 20 15 13 12 12 10 9 7 5 4 3 7 10 15 23 27 31 34 34 31 30 28 25
21 21 22 22 24 24 25 26 26 27 27 27 26 24 21 18 14 11 8 6 6 6 5 2 2 7 11 12 17 21 28 28 27 28 31 29 27 24
20 20 20 21 21 22 22 22 24 25 24 24 23 21 18 15 12 7 6 6 5 5 4 5 7 11 11 12 16 21 22 23 26 27 28 27 25 23
19 19 19 19 19 19 20 21 22 22 21 21 20 18 16 14 11 9 7 7 6 5 4 6 8 12 14 15 16 18 20 22 24 26 25 24 23 21
18 17 17 17 17 18 19 19 19 19 19 19 19 17 15 13 12 9 7 5 5 5 5 7 9 10 14 16 17 20 20 20 24 24 23 22 21 21
16 16 15 16 16 17 18 18 18 18 18 18 17 16 15 13 12 10 8 6 5 6 8 9 11 13 12 15 16 18 20 20 24 24 23 23 22 21
16 15 15 15 16 17 17 17 17 18 17 17 16 16 14 13 12 11 9 9 8 9 9 11 12 13 13 15 16 16 18 19 22 22 22 22 22 22
15 15 15 15 16 16 17 17 18 18 17 17 16 16 15 14 12 11 9 7 8 10 11 13 14 15 14 13 16 18 18 19 19 20 19 19 18 18
14 14 14 14 15 16 17 17 17 17 17 16 16 15 15 14 12 11 9 7 6 8 11 13 15 16 17 17 17 19 19 19 20 20 19 18 18 17
13 13 13 14 14 15 16 16 16 16 16 16 16 15 14 13 12 11 9 8 6 5 7 9 11 13 15 17 17 18 19 19 21 20 19 18 18 17
12 12 12 13 14 15 15 15 16 15 15 14 14 13 13 12 12 11 9 7 6 6 6 7 8 10 11 12 14 15 16 17 19 20 20 20 19 18
11 11 12 13 13 14 14 14 14 13 14 13 12 12 12 12 11 9 7 5 5 5 5 6 6 7 9 11 11 12 13 14 15 16 17 17 17 17
11 11 12 12 12 13 12 12 13 13 13 12 12 11 10 8 7 5 3 2 4 5 6 6 6 7 8 10 11 11 12 12 13 13 12 14 13 13
Wind_Direction
293 294 294 294 294 295 295 296 296 298 298 299 300 301 300 299 299 298 297 295 292 288 283 276 272 269 267 267 268 263 260 242 230 229 229 220 219 220
295 295 295 295 295 295 296 296 296 296 297 300 301 302 302 302 301 300 299 298 295 291 281 273 268 266 264 262 261 257 256 250 239 220 221 216 217 217
296 296 296 295 296 296 297 297 297 297 298 300 302 303 303 303 302 302 300 298 295 288 281 274 267 264 260 258 256 251 251 246 209 213 213 216 215 216
297 296 295 297 297 297 298 298 299 299 300 301 304 304 304 304 303 300 298 298 293 287 282 277 267 260 259 256 253 247 243 239 226 220 222 217 212 211
297 296 296 297 297 299 299 300 301 302 303 303 305 306 306 306 305 301 298 294 291 289 284 278 269 258 258 255 249 244 239 229 216 220 214 209 209 207
297 297 296 297 298 300 301 303 304 305 306 306 307 308 308 308 306 303 298 293 291 289 285 283 274 260 256 252 246 241 234 226 219 213 205 202 202 203
296 296 297 298 299 300 303 305 307 308 309 309 310 310 310 309 305 302 297 294 291 288 286 285 283 269 251 246 243 240 233 219 210 204 201 204 201 199
295 295 297 299 300 302 305 308 309 310 312 313 313 313 312 309 305 296 294 293 289 290 293 293 289 269 244 239 235 230 217 200 192 195 201 198 196 196
294 295 297 299 302 304 307 310 312 314 315 316 316 316 315 310 302 291 290 287 288 292 297 300 294 270 240 233 228 219 206 200 200 198 195 191 192 196
292 294 297 300 302 306 309 311 315 317 321 321 322 322 320 314 301 290 288 286 290 297 300 305 311 261 222 217 207 200 196 191 188 186 185 185 191 194
291 293 297 301 305 308 312 314 316 321 325 327 329 331 332 326 309 298 291 286 290 295 307 313 319 162 157 161 165 173 175 175 175 181 186 189 190 194
289 293 297 303 308 312 315 318 321 325 327 332 334 334 335 331 320 299 287 285 285 290 291 290 177 162 145 146 160 167 160 170 179 182 183 188 195 200
287 292 297 304 311 316 320 324 326 328 330 331 334 337 338 341 338 322 292 284 274 288 265 203 171 163 160 158 156 166 173 178 180 183 187 193 199 205
284 291 297 305 311 317 323 328 331 333 336 337 337 338 338 333 334 319 301 284 273 266 226 190 194 199 195 190 184 183 183 185 185 188 191 195 202 213
283 290 298 304 311 316 323 328 331 335 338 341 343 342 337 331 326 318 300 284 269 224 211 198 189 179 184 192 192 191 190 191 192 195 199 206 212 220
283 289 294 301 309 315 319 323 327 330 333 336 338 338 338 335 328 315 298 282 250 230 211 200 189 185 183 186 189 191 195 204 203 204 210 217 220 226
282 285 290 298 307 313 317 319 322 325 328 332 333 333 332 333 333 324 311 276 249 233 218 207 201 197 199 197 195 198 199 199 204 211 216 220 224 227
280 281 287 296 304 309 313 316 318 320 321 323 325 326 326 325 326 326 319 305 261 236 224 217 210 206 207 208 209 205 211 210 212 212 214 214 219 222
278 280 286 294 301 307 311 314 316 317 319 320 319 318 318 319 318 319 317 305 287 246 229 224 223 221 220 220 218 216 213 214 214 214 218 220 218 217
276 281 287 293 299 305 310 314 315 316 317 318 318 318 316 312 312 310 306 299 280 255 227 221 221 222 219 219 220 216 216 217 216 216 217 217 215 214
275 282 287 293 298 303 309 312 316 319 321 322 322 322 320 316 312 306 298 286 263 245 228 219 214 208 207 205 205 210 213 214 212 214 213 215 217 222
274 281 287 293 300 304 307 311 316 319 322 323 324 325 324 322 318 307 294 271 243 220 205 193 193 196 196 192 192 191 193 194 196 198 203 213 216 224
273 281 288 295 298 303 308 313 315 318 319 320 319 321 325 332 337 345 324 258 211 193 184 180 174 170 164 166 170 173 174 180 187 190 200 206 215 218